Location: ????????
(60.4333°N, 46.4710°E)
Time: 04:05:08
(UTC+00:00)

ERS-2 - Pass Details

Date: 25 November 2020
Orbit: 492 x 498 km, 98.6° (Epoch: 19 January)

Event Time Altitude Azimuth Distance (km) Brightness Sun altitude
Exits shadow 15:34:54 45° 225° (SW) 690 3.0 -24.7°
Drops below altitude 10° 15:37:35 10° 209° (SSW) 1,706 5.1 -25.0°
Sets 15:39:40 0° 207° (SSW) 2,585 6.1 -25.3°
